Regional Weather Roundup
Issued by NWS

Home | Current Version | Previous Version | Text Only | Print | Product List | Glossary On
Versions: 1 2 3 4 5 6 7 8 9 10 11 12 13 14 15 16 17 18 19 20 21 22 23 24 25 26 27 28 29 30 31 32 33 34 35 36 37 38 39 40 41 42 43 44 45 46 47 48 49 50
000
ASHW40 PHFO 250312
RWRHI

WEATHER ROUNDUP FOR HAWAII
NATIONAL WEATHER SERVICE HONOLULU HI
500 PM HST MON APR 24 2017

THIS IS AN AUTOMATED REPORT THAT HAS NOT BEEN QUALITY CONTROLLED.

NOTE..."FAIR" INDICATES FEW OR NO CLOUDS BELOW 12,000 FEET WITH NO
SIGNIFICANT WEATHER AND/OR OBSTRUCTIONS TO VISIBILITY.

* - THESE SITES REPORT LIMITED FIELDS

HIZ001>004-250400-
KAUAI-NIIHAU-

CITY           SKY/WX    TMP DP  RH WIND       PRES   REMARKS
LIHUE APT      MOSUNNY   81  67  62 NE10      30.06F
PORT ALLEN*      N/A     84 N/A N/A E15         N/A
POIPU*           N/A     82 N/A N/A E7G13       N/A
PRINCEVILLE*     N/A     81 N/A N/A E8G14       N/A
KOKOLE POINT*  NOT AVBL
MOLOAA DAIRY*    N/A     79  68  69 E8G15       N/A
WAIMEA HTS*    NOT AVBL
PUU OPAE*      NOT AVBL
PUU LUA*       NOT AVBL
MAKAHA RIDGE*  NOT AVBL
$$

HIZ005>011-250400-
OAHU-

CITY           SKY/WX    TMP DP  RH WIND       PRES   REMARKS
HONOLULU       MOSUNNY   84  62  47 NE14      30.03S
KALAELOA       MOSUNNY   84  67  56 SE9       30.04S
KANEOHE MCB    NOT AVBL
WHEELER FIELD  MOSUNNY   80  64  58 NE8       30.05S
BELLOWS*       NOT AVBL
KAHUKU*        NOT AVBL
WHEELER*       NOT AVBL
WAIANAE HARBOR NOT AVBL
DILLINGHAM*      N/A     88  70  55 E3G13       N/A  HX  92
KAHUKU TRN*      N/A     86  75  70 W3G18       N/A  HX  95
KAWAILOA*        N/A     79  63  57 E6G14       N/A
KII*             N/A     81  68  65 E13G18      N/A
MAKUA RANGE*     N/A     68  54  60 SE6G12      N/A
OAHU FOREST NW NOT AVBL
SCHOFIELD BRK*   N/A     61  45  55 MISG        N/A
SCHOFIELD S*   NOT AVBL
WAIANAE VLY*   NOT AVBL
KUAOKALA*      NOT AVBL
HONOULIUULI*   NOT AVBL
MOKUOLOE IS*   NOT AVBL
PALEHUA*       NOT AVBL
WAIAWA PHB*    NOT AVBL
$$

HIZ012>013-250400-
MOLOKAI-

CITY           SKY/WX    TMP DP  RH WIND       PRES   REMARKS
MOLOKAI AIRPT  MOSUNNY   76  66  71 N8        30.03F
KALAUPAPA      NOT AVBL
MAKAPULAPAI*   NOT AVBL
MOLOKAI 1*     NOT AVBL
PUU ALII*      NOT AVBL
$$

HIZ016-250400-
KAHOOLAWE-

CITY           SKY/WX    TMP DP  RH WIND       PRES   REMARKS
KAHOOLAWE*     NOT AVBL
HAKIOAWA*      NOT AVBL
HONOKANAIA*      N/A     84  61  45 E15G30    29.95F
KANELOA*       NOT AVBL
KEALIALALO*    NOT AVBL
LUA MAKIKA*    NOT AVBL
$$

HIZ014>015-250400-
LANAI-

CITY           SKY/WX    TMP DP  RH WIND       PRES   REMARKS
LANAI CITY     FAIR      75  64  69 N13       30.08F
LANAI 1*       NOT AVBL
$$

HIZ017>028-250400-
MAUI-

CITY           SKY/WX    TMP DP  RH WIND       PRES   REMARKS
KAHULUI        MOSUNNY   83  66  56 NE18G29   29.99F
KAPALUA-W MAUI MOSUNNY   81  61  50 NE16      30.03
HANA AIRPORT   NOT AVBL
HANA*            N/A     81 N/A N/A E7G13       N/A
HALEAKALA SUMM   N/A     45  12  26 E33         N/A
MAALAEA BAY*   NOT AVBL
HALEAKALA*     NOT AVBL
KAUPO GAP*     NOT AVBL
KULA 1*          N/A     61  54  78 W5G10       N/A
$$

HIZ023>026-250400-
BIG ISLAND OF HAWAII COAST AND LOWER SLOPES-

CITY           SKY/WX    TMP DP  RH WIND       PRES   REMARKS
KAILUA KONA    PTSUNNY   82  67  60 S14       29.99S
HILO           CLOUDY    78  66  66 SE6       30.05R
HONOKAA*         N/A     72 N/A N/A VRB1        N/A
KAWAIHAE MWT*    N/A     82 N/A N/A W5          N/A
KAWAIHAE*      NOT AVBL
SOUTH POINT*     N/A     75 N/A N/A N15G22      N/A
UPOLU AIRPORT* NOT AVBL
KAMUELA*       CLEAR     73  59  60 NE20      30.12F
HAKALAU*         N/A    N/A N/A N/A SW5G10      N/A
KALOKO-HONOKO* NOT AVBL
PALI 2*          N/A     72  59  64 S8G15       N/A
KEALAKOMO*       N/A     79  64  61 E15G21      N/A
KAUPULEHU*     NOT AVBL
KAPAPALA*        N/A     71  65  81 S3G9        N/A
LOWER KAHUKU*  NOT AVBL
PUHE CS*       NOT AVBL
PUHO CS*       NOT AVBL
PTA KEAMUKU*     N/A     66  59  77 CALM        N/A
WAIKOLOA*      NOT AVBL
$$

HIZ027>028-250400-
BIG ISLAND OF HAWAII INTERIOR AND SUMMMITS-

CITY           SKY/WX    TMP DP  RH WIND       PRES   REMARKS
BRADSHAW FIELD PTSUNNY   65  24  21 S15G22    30.31R
MK VISITOR CEN   N/A     50   7  17 E9          N/A
MAUNA KEA*       N/A     37 -15  10 E16         N/A  WCI  28
MAUNA LOA*       N/A    N/A N/A N/A MISG        N/A
MAUNA LOA 1*   NOT AVBL
PTA KIPUKA*      N/A     64  52  63 NW8G17      N/A
PTA RANGE 17*    N/A     72   9   8 E14G26      N/A
PTA WEST*        N/A     70  63  78 NW12G21     N/A
NENE CABIN*    NOT AVBL
AHUMOA*        NOT AVBL
PTA PORTABLE*  NOT AVBL
PUU MALI*        N/A     63  12  14 E21G32      N/A
$$

HIC003-250400-
NORTHWEST ISLANDS-

CITY           SKY/WX    TMP DP  RH WIND       PRES   REMARKS
MIDWAY ISLAND  SUNNY     77  70  78 SW13      29.97F
MIDWAY NOS*    NOT AVBL
FRENCH FRIGATE NOT AVBL
$$

PHZ110>124-180-250400-
BUOY REPORTS

STATION/POSITION TIME  TEMP    WIND        PRES    WAVE   SWELL
                       AIR SEA DIR/SP/G            HT/PER HT/DIR
                 (UTC) (F)     (DEG/KT/KT) (MB)    (FT/S) (FT/D)
BUOY 51001       0250   76 77  130/ 10/ 14 1017.8F   5/11   5/310
BUOY 51101       0250   76 77  120/ 12/ 14 1018.1F   5/11   5/280
BUOY 51100       NOT AVBL
BUOY 51002       0250   78 79   70/ 19/ 21 1014.5F   9/10   3/100
BUOY 51003       0250   78 79   80/ 14/ 17 1015.5F   7/ 8   5/120
BUOY 51004       0150      78   60/ 16/ 19 1015.7    8/ 8   5/ 90
BARBERS PT BUOY  NOT AVBL
WAIMEA BAY BUOY  0232      77                N/A     3/11   2
KAILUA BAY BUOY  0234      78                N/A     5/ 8   2/ 10
LANAI BUOY       0245      79                N/A     3/11   2/170
BARBERS PT 2     NOT AVBL
PAUWELA MAUI     0239      77                N/A     5/ 9   2/ 10
HILO             0242      78                N/A     6/ 8   2/ 20
KANEOHE BAY BUOY 0225      78                N/A     5/ 8   2/ 10
HANALEI KAUAI    0252      77                N/A     4/ 8   2/350
KAHULUI HARBOR   0242   78 79   50/ 24/ 29 1015.8F
HONOLULU HARBOR  0242   82 79   90/  4/ 14 1017.6F
KILO NALU        NOT AVBL
HILO HARBOR      0242   83 77  130/  5/  8 1017.2R
MOKUOLOE         0236   81 80  100/  5/  9 1017.4F
NAWILIWILI       0248   79      60/  9/ 11 1017.5F
WHOTS BUOY       NOT AVBL
BUOY 51028       NOT AVBL
$$

......................KEY........................................
  SKY/WX - SKY CONDITIONS/PRESENT WEATHER
  TMP    - TEMPERATURE IN FAHRENHEIT
  DWPT   - DEWPOINT IN FAHRENHEIT
  RH     - RELATIVE HUMIDITY IN PERCENT
  WIND   - DIRECTION AND SPEED /MPH FOR ISLANDS...KTS FOR BUOYS/
  PRES   - MEAN SEA LEVEL PRESSURE IN INCHES OF HG
  VSB    - VISIBILITY IN MILES
  HX     - HEAT INDEX
  WCI    - WIND CHILL INDEX
  VRB    - VARIABLE WIND DIRECTION
  N/A    - NOT AVAILABLE



USA.gov is the U.S. government's official web portal to all federal, state and local government web resources and services.